Regional Weather Roundup
Issued by NWS

Home | Current Version | Previous Version | Text Only | Print | Product List | Glossary Off
Versions: 1 2 3 4 5 6 7 8 9 10 11 12 13 14 15 16 17 18 19 20 21 22 23 24 25 26 27

000
ASUS45 KPSR 280210
RWRAZ

ARIZONA HOURLY REGIONAL WEATHER ROUNDUP
NATIONAL WEATHER SERVICE PHOENIX AZ
700 PM MST SAT AUG 27 2016

NOTE: FAIR INDICATES FEW OR NO CLOUDS BELOW 12,000 FEET WITH NO
SIGNIFICANT WEATHER AND/OR OBSTRUCTIONS TO VISIBILITY.

AZZ001>003-036-280300-
NORTHWEST ARIZONA

CITY           SKY/WX    TMP DP  RH WIND       PRES   REMARKS
BULLHEAD CITY  CLEAR     90  52  27 SW3       29.86S
KINGMAN        MOCLDY    75  56  51 S3        30.04S
$$

AZZ004>008-015-016-018-280300-
NORTH CENTRAL ARIZONA

CITY           SKY/WX    TMP DP  RH WIND       PRES   REMARKS
GRAND CANYON   MOCLDY    59  49  69 CALM      30.22S
PRESCOTT       MOCLDY    65  50  58 NW13      30.15R
FLAGSTAFF      PTCLDY    57  46  66 CALM      30.24R
PAYSON         CLEAR     70  45  40 W5        30.16R
PAGE           PTCLDY    71  51  49 NW3       30.09S
$$

AZZ009>014-017-280300-
NORTHEAST ARIZONA

CITY           SKY/WX    TMP DP  RH WIND       PRES   REMARKS
WINSLOW        MOCLDY    70  54  56 E7        30.12R
SAINT JOHNS    CLEAR     65  54  67 CALM      30.17S
SHOW LOW       CLEAR     63  50  63 CALM      30.22R
$$

AZZ023-280300-
GREATER PHOENIX AREA

CITY           SKY/WX    TMP DP  RH WIND       PRES   REMARKS
PHOENIX        PTCLDY    94  44  17 N8        29.83R
BUCKEYE        CLEAR     93  43  17 CALM      29.85R
GLENDALE       PTCLDY    95  43  16 SW5       29.85R
LUKE AFB       CLEAR     94  42  16 S3        29.83R
DEER VALLEY    CLEAR     92  41  17 W7        29.86R
SCOTTSDALE     CLEAR     92  42  17 NW3       29.88R
MESA-FALCON    PTCLDY   N/A N/A N/A NW12      29.83S
MESA-GATEWAY   PTCLDY    91  45  19 NW10      29.86R
CHANDLER       CLEAR     93  45  18 NW12      29.84
$$

AZZ027-028-280300-
SOUTHWEST MARICOPA COUNTY AND PINAL COUNTY

CITY           SKY/WX    TMP DP  RH WIND       PRES   REMARKS
CASA GRANDE    CLEAR     93  39  15 N8        29.88R
GILA BEND      FAIR      95  37  13 NW6       29.81R
$$

AZZ503-504-507>509-280300-
SOUTHEAST ARIZONA

CITY           SKY/WX    TMP DP  RH WIND       PRES   REMARKS
TUCSON         CLEAR     89  35  14 W7        29.95R
DAVIS-MONTHAN  CLEAR     88  35  15 W8        29.94R
RYAN FIELD     CLEAR     90  36  14 SW6       29.93R
NOGALES        CLEAR     79  42  26 SW7       30.04R
SIERRA VISTA   CLEAR     77  39  25 W10       30.10R
DOUGLAS        CLEAR     77  44  30 W7        30.05R
SAFFORD        CLEAR     85  43  22 W8        29.95R
$$

AZZ020-021-025-026-031-280300-
SOUTHWEST ARIZONA

CITY           SKY/WX    TMP DP  RH WIND       PRES   REMARKS
YUMA           CLEAR     95  39  14 S10       29.78R
$$

CAZ031-033-041-043-047-048-061-280300-
SOUTHERN CALIFORNIA

CITY           SKY/WX    TMP DP  RH WIND       PRES   REMARKS
DOWNTOWN L.A.  CLEAR     70  58  65 W5        29.93S
L.A. AIRPORT   PTCLDY    68  59  73 W17       29.94S
SAN DIEGO      PTCLDY    70  59  68 NW8       29.96S
BURBANK        CLEAR     72  58  61 S10       29.92S
ONTARIO        CLEAR     77  55  46 SW10      29.93R
RIVERSIDE      CLEAR     77  55  46 W10       29.92R
PALM SPRINGS   CLEAR     96  54  24 NW14      29.82R
EL CENTRO NAS  CLEAR     99  46  16 NW6       29.77R
IMPERIAL       CLEAR     99  54  22 NW5       29.75R
BLYTHE         CLEAR     98  43  15 N9        29.80R
NEEDLES        CLEAR     88  61  40 MISG      29.87S
$$

NVZ020-UTZ003-280300-
SOUTHERN NEVADA-UTAH

CITY           SKY/WX    TMP DP  RH WIND       PRES   REMARKS
LAS VEGAS      MOCLDY    86  45  23 E10       29.92S
SALT LAKE CITY PTCLDY    83  28  13 N6        29.99S
$$

NMZ009-TXZ055-280300-
NEW MEXICO-WEST TEXAS

CITY           SKY/WX    TMP DP  RH WIND       PRES   REMARKS
ALBUQUERQUE    CLOUDY    68  50  52 N8        30.19R
EL PASO        CLOUDY    85  58  39 VRB7      30.01R THUNDER
$$


........................KEY........................
SKY/WX - SKY CONDITION/WEATHER
TMP    - TEMPERATURE IN FAHRENHEIT
DP     - DEW POINT IN FAHRENHEIT
RH     - RELATIVE HUMIDITY IN PERCENT
WIND   - DIRECTION AND SPEED IN MILES PER HOUR (MPH)
VRB    - VARIABLE WIND DIRECTION
PRES   - MEAN SEA LEVEL PRESSURE IN INCHES OF MERCURY
         F - FALLING PRESSURE   R - RISING PRESSURE
         S - STEADY PRESSURE
VSB    - VISIBILITY IN MILES
HX     - HEAT INDEX IN FAHRENHEIT
WCI    - WIND CHILL INDEX IN FAHRENHEIT
TC     - TEMPERATURE IN CELSIUS WHICH IS ALSO KNOWN AS
         TEMPERATURE IN CENTIGRADE
AFB    - AIR FORCE BASE
         LUKE AFB IS LUKE AIR FORCE BASE
         DAVIS-MONTHAN IS DAVIS-MONTHAN AIR FORCE BASE
NAS    - NAVAL AIR STATION
         EL CENTRO NAS IS EL CENTRO NAVAL AIR STATION
N/A    - NOT AVAILABLE





USA.gov is the U.S. government's official web portal to all federal, state and local government web resources and services.